This is the latest recevied weather packets stored in our database for station/object WA9SDJ-13. If no packets are shown the sender has not sent any weather packets the latest 1 day(s).
| Time | Temp. | Humidity | Pressure | Rain* | Wind** | Luminosity | Snow |
|---|---|---|---|---|---|---|---|
| 1778071192 | 8.89° C | 88% | 1012.2 hPa | 0 mm | - | 125 W/m² | - |
| 1778071132 | 8.89° C | 88% | 1012.2 hPa | 0 mm | - | 125 W/m² | - |
| 1778071072 | 8.89° C | 88% | 1012.1 hPa | 0 mm | - | 118 W/m² | - |
| 1778071012 | 8.89° C | 88% | 1012.2 hPa | 0 mm | - | 106 W/m² | - |
| 1778070952 | 8.89° C | 88% | 1012.2 hPa | 0 mm | - | 97 W/m² | - |
| 1778070832 | 8.89° C | 88% | 1012.3 hPa | 0 mm | - | 91 W/m² | - |
| 1778070712 | 8.89° C | 88% | 1012.4 hPa | 0 mm | - | 107 W/m² | - |
| 1778069571 | 8.33° C | 88% | 1012.4 hPa | 0 mm | - | 81 W/m² | - |
| 1778069511 | 8.33° C | 88% | 1012.4 hPa | 0 mm | - | 74 W/m² | - |
| 1778069451 | 8.33° C | 88% | 1012.3 hPa | 0 mm | - | 49 W/m² | - |
| 1778069392 | 8.33° C | 88% | 1012.3 hPa | 0 mm | - | 51 W/m² | - |
| 1778069211 | 8.33° C | 88% | 1012.2 hPa | 0 mm | - | 67 W/m² | - |
| 1778069091 | 8.33° C | 88% | 1012.2 hPa | 0 mm | - | 48 W/m² | - |
| 1778069031 | 8.33° C | 88% | 1012.2 hPa | 0 mm | - | 79 W/m² | - |
| 1778068971 | 8.33° C | 88% | 1012.2 hPa | 0 mm | - | 56 W/m² | - |
| 1778068911 | 8.33° C | 88% | 1012.1 hPa | 0 mm | - | 70 W/m² | - |
| 1778068671 | 8.33° C | 88% | 1012.1 hPa | 0 mm | - | 102 W/m² | - |
| 1778068551 | 7.78° C | 88% | 1011.9 hPa | 0 mm | - | 81 W/m² | - |
| 1778068491 | 7.78° C | 88% | 1011.9 hPa | 0 mm | - | 76 W/m² | - |
| 1778068431 | 7.78° C | 88% | 1011.8 hPa | 0 mm | - | 67 W/m² | - |
| 1778068371 | 7.78° C | 88% | 1011.8 hPa | 0 mm | - | 63 W/m² | - |
| 1778067531 | 7.22° C | 88% | 1011.5 hPa | 0 mm | - | 49 W/m² | - |
| 1778067471 | 7.22° C | 88% | 1011.5 hPa | 0 mm | - | 48 W/m² | - |
| 1778067231 | 7.22° C | 88% | 1011.4 hPa | 0 mm | - | 35 W/m² | - |
| 1778066810 | 7.22° C | 88% | 1011.6 hPa | 0 mm | - | 21 W/m² | - |
* Rain latest hour (hover to see other rain measurements)
** Current wind speed in m/s (hover to see current wind gust speed)